• images/banner/banner1.jpg
  • images/banner/banner2.jpg

Team Member Login

Aviation Weather

[source: ADDS]
METAR
EGVN 231650Z 34013KT 9999 FEW035 13/05 Q1024 NOSIG =
TAF EGVN 231622Z 2318/2418 33012KT 9999 FEW035
TAF
TAF EGVN 231622Z 2318/2418 33012KT 9999 FEW035 =